TimeCEST,TemperatureF,Dew PointF,Humidity,Sea Level PressureIn,VisibilityMPH,Wind Direction,Wind SpeedMPH,Gust SpeedMPH,PrecipitationIn,Events,Conditions,WindDirDegrees,DateUTC
12:00 AM,68.0,64.4,88,29.92,6.2,Variable,2.3,-,N/A,,Scattered Clouds,0,2013-10-22 22:00:00
12:30 AM,68.0,64.4,88,29.95,6.2,Variable,2.3,-,N/A,,Scattered Clouds,0,2013-10-22 22:30:00
1:00 AM,68.0,64.4,88,29.95,6.2,Variable,1.2,-,N/A,,Scattered Clouds,0,2013-10-22 23:00:00
1:30 AM,68.0,66.2,94,29.95,6.2,Variable,2.3,-,N/A,,Scattered Clouds,0,2013-10-22 23:30:00
2:00 AM,68,65,89,29.94,9,Calm,Calm,,,,Partly Cloudy,,2013-10-23 00:00:00
2:00 AM,68.0,66.2,94,29.95,6.2,Calm,Calm,-,N/A,,Scattered Clouds,0,2013-10-23 00:00:00
3:30 AM,68.0,64.4,88,29.92,6.2,ENE,2.3,-,N/A,,Scattered Clouds,60,2013-10-23 01:30:00
4:00 AM,69.8,66.2,88,29.92,6.2,Calm,Calm,-,N/A,,Scattered Clouds,0,2013-10-23 02:00:00
4:30 AM,69.8,66.2,88,29.89,6.2,Variable,1.2,-,N/A,,Scattered Clouds,0,2013-10-23 02:30:00
5:00 AM,68.0,66.2,94,29.89,6.2,Calm,Calm,-,N/A,,Scattered Clouds,0,2013-10-23 03:00:00
5:30 AM,71.6,68.0,88,29.89,6.2,SW,5.8,-,N/A,,Scattered Clouds,230,2013-10-23 03:30:00
6:00 AM,73.4,68.0,83,29.89,6.2,SW,6.9,-,N/A,,Scattered Clouds,230,2013-10-23 04:00:00
6:30 AM,73.4,68.0,83,29.92,6.2,WSW,8.1,-,N/A,,Scattered Clouds,240,2013-10-23 04:30:00
7:00 AM,73.4,68.0,83,29.92,6.2,WSW,9.2,-,N/A,,Scattered Clouds,240,2013-10-23 05:00:00
7:30 AM,73.4,68.0,83,29.92,6.2,WSW,8.1,-,N/A,,Partly Cloudy,240,2013-10-23 05:30:00
8:00 AM,72,67,80,29.91,12,WSW,4.6,,,Rain,Light Rain,250,2013-10-23 06:00:00
8:00 AM,73.4,66.2,78,29.89,6.2,WSW,5.8,-,N/A,,Partly Cloudy,240,2013-10-23 06:00:00
8:30 AM,73.4,68.0,83,29.92,6.2,WSW,5.8,-,N/A,,Partly Cloudy,240,2013-10-23 06:30:00
9:00 AM,73.4,68.0,83,29.92,6.2,WSW,8.1,-,N/A,,Scattered Clouds,250,2013-10-23 07:00:00
9:30 AM,73.4,68.0,83,29.95,6.2,WSW,6.9,-,N/A,,Scattered Clouds,240,2013-10-23 07:30:00
10:00 AM,73.4,68.0,83,29.95,6.2,WSW,9.2,-,N/A,,Partly Cloudy,250,2013-10-23 08:00:00
10:30 AM,75.2,68.0,78,29.95,6.2,WSW,6.9,-,N/A,,Partly Cloudy,240,2013-10-23 08:30:00
11:00 AM,75.2,68.0,78,29.95,6.2,SW,6.9,-,N/A,,Partly Cloudy,230,2013-10-23 09:00:00
11:30 AM,75.2,68.0,78,29.98,6.2,WSW,11.5,-,N/A,,Partly Cloudy,250,2013-10-23 09:30:00
12:00 PM,75.2,66.2,73,29.98,6.2,West,9.2,-,N/A,,Partly Cloudy,280,2013-10-23 10:00:00
12:30 PM,77.0,60.8,57,29.98,6.2,West,10.4,-,N/A,,Partly Cloudy,260,2013-10-23 10:30:00
1:00 PM,77.0,62.6,61,29.98,6.2,WSW,12.7,-,N/A,,Partly Cloudy,250,2013-10-23 11:00:00
1:30 PM,77.0,62.6,61,29.98,6.2,West,13.8,-,N/A,,Partly Cloudy,260,2013-10-23 11:30:00
2:00 PM,77,64,54,29.97,16,WSW,16.1,,,,Scattered Clouds,250,2013-10-23 12:00:00
2:00 PM,77.0,64.4,65,29.95,6.2,WSW,13.8,-,N/A,,Partly Cloudy,250,2013-10-23 12:00:00
2:30 PM,77.0,64.4,65,29.95,6.2,West,12.7,-,N/A,,Partly Cloudy,260,2013-10-23 12:30:00
3:00 PM,77.0,64.4,65,29.95,6.2,West,15.0,-,N/A,,Partly Cloudy,260,2013-10-23 13:00:00
3:30 PM,77.0,60.8,57,29.95,6.2,WSW,13.8,-,N/A,,Partly Cloudy,250,2013-10-23 13:30:00
4:00 PM,77.0,59.0,54,29.95,6.2,WSW,13.8,-,N/A,,Partly Cloudy,250,2013-10-23 14:00:00
4:30 PM,77.0,62.6,61,29.95,6.2,WSW,15.0,-,N/A,,Partly Cloudy,250,2013-10-23 14:30:00
5:00 PM,77.0,64.4,65,29.95,6.2,WSW,15.0,-,N/A,,Partly Cloudy,250,2013-10-23 15:00:00
5:30 PM,75.2,62.6,65,29.95,6.2,WSW,11.5,-,N/A,,Partly Cloudy,240,2013-10-23 15:30:00
6:00 PM,75.2,62.6,65,29.95,6.2,WSW,11.5,-,N/A,,Partly Cloudy,250,2013-10-23 16:00:00
6:30 PM,75.2,62.6,65,29.95,6.2,SW,9.2,-,N/A,,Partly Cloudy,230,2013-10-23 16:30:00
7:00 PM,73.4,62.6,69,29.98,6.2,SW,8.1,-,N/A,,Partly Cloudy,220,2013-10-23 17:00:00
7:30 PM,73.4,64.4,73,29.98,6.2,WSW,6.9,-,N/A,,Partly Cloudy,240,2013-10-23 17:30:00
8:00 PM,72,63,66,30.01,16,WSW,9.2,,,,Scattered Clouds,250,2013-10-23 18:00:00
8:00 PM,73.4,62.6,69,30.01,6.2,WSW,6.9,-,N/A,,Partly Cloudy,240,2013-10-23 18:00:00
8:30 PM,71.6,64.4,78,30.01,6.2,WSW,3.5,-,N/A,,Partly Cloudy,250,2013-10-23 18:30:00
9:00 PM,71.6,64.4,78,30.01,6.2,Variable,1.2,-,N/A,,Partly Cloudy,0,2013-10-23 19:00:00
9:30 PM,69.8,62.6,78,30.01,6.2,SW,2.3,-,N/A,,Partly Cloudy,220,2013-10-23 19:30:00
10:00 PM,69.8,62.6,78,30.01,6.2,Variable,1.2,-,N/A,,Partly Cloudy,0,2013-10-23 20:00:00
10:30 PM,69.8,64.4,83,30.04,6.2,Variable,1.2,-,N/A,,Partly Cloudy,0,2013-10-23 20:30:00
11:00 PM,68.0,62.6,83,30.04,6.2,Variable,1.2,-,N/A,,Partly Cloudy,0,2013-10-23 21:00:00
11:30 PM,66.2,60.8,83,30.04,6.2,Calm,Calm,-,N/A,,Partly Cloudy,0,2013-10-23 21:30:00